Location: �quirre
(50.4736°N, 2.2351°E)
Time: 22:35:30
(UTC+00:00)

USA 229 - Pass Details

Date: 07 August 2020
Orbit: 973 x 1239 km, 63.4° (Epoch: 22 September)

Event Time Altitude Azimuth Distance (km) Brightness Sun altitude
Exits shadow 02:48:45 14° 194° (SSW) 2,500 5.1 -13.3°
Maximum altitude 02:54:14 52° 122° (ESE) 1,268 4.2 -12.7°
Drops below altitude 10° 03:00:49 10° 49° (NE) 2,922 7.5 -12.0°
Sets 03:03:38 0° 45° (NE) 3,922 8.9 -11.7°
